Time,TemperatureF,DewpointF,PressureIn,WindDirection,WindDirectionDegrees,WindSpeedMPH,WindSpeedGustMPH,Humidity,HourlyPrecipIn,Conditions,Clouds,dailyrainin,SoftwareType,DateUTC
2013-02-03 00:00:00,25.0,22.2,30.28,North,360,11.0,24.0,89,0.00,,,-99.99,Weather View 32 v60,2013-02-03 06:00:00,
2013-02-03 00:15:00,24.0,21.2,30.30,North,360,2.0,24.0,89,0.00,,,-99.99,Weather View 32 v60,2013-02-03 06:15:00,
2013-02-03 00:30:00,25.0,22.2,30.30,NNW,337,8.0,23.0,89,0.00,,,-99.99,Weather View 32 v60,2013-02-03 06:30:00,
2013-02-03 00:45:00,24.0,21.2,30.30,North,360,8.0,23.0,89,0.00,,,-99.99,Weather View 32 v60,2013-02-03 06:45:00,
2013-02-03 01:00:00,24.0,21.2,30.30,NNW,337,13.0,24.0,89,0.00,,,-99.99,Weather View 32 v60,2013-02-03 07:00:00,
2013-02-03 01:15:00,24.0,21.5,30.30,WNW,292,5.0,24.0,90,0.00,,,-99.99,Weather View 32 v60,2013-02-03 07:15:00,
2013-02-03 01:30:00,23.0,21.0,30.30,NW,315,4.0,24.0,92,0.00,,,-99.99,Weather View 32 v60,2013-02-03 07:30:00,
2013-02-03 01:45:00,23.0,21.0,30.32,NNW,337,17.0,24.0,92,0.00,,,-99.99,Weather View 32 v60,2013-02-03 07:45:00,
2013-02-03 02:00:00,23.0,21.0,30.33,North,360,8.0,24.0,92,0.00,,,-99.99,Weather View 32 v60,2013-02-03 08:00:00,
2013-02-03 02:15:00,22.0,20.0,30.34,NNE,22,1.0,23.0,92,0.00,,,-99.99,Weather View 32 v60,2013-02-03 08:15:00,
2013-02-03 02:30:00,21.0,19.0,30.34,NNE,22,9.0,27.0,92,0.00,,,-99.99,Weather View 32 v60,2013-02-03 08:30:00,
2013-02-03 02:45:00,21.0,18.5,30.34,WNW,292,12.0,27.0,90,0.00,,,-99.99,Weather View 32 v60,2013-02-03 08:45:00,
2013-02-03 03:00:00,20.0,17.3,30.34,NNW,337,6.0,27.0,89,0.00,,,-99.99,Weather View 32 v60,2013-02-03 09:00:00,
2013-02-03 03:05:00,20.0,17.3,30.34,NNW,337,6.0,27.0,89,0.00,,,-99.99,Weather View 32 v60,2013-02-03 09:05:00,
2013-02-03 03:15:00,20.0,17.3,30.34,NW,315,0.0,27.0,89,0.00,,,-99.99,Weather View 32 v60,2013-02-03 09:15:00,
2013-02-03 03:30:00,20.0,17.5,30.34,North,360,9.0,26.0,90,0.00,,,-99.99,Weather View 32 v60,2013-02-03 09:30:00,
2013-02-03 03:45:00,19.0,17.1,30.34,WNW,292,4.0,26.0,92,0.00,,,-99.99,Weather View 32 v60,2013-02-03 09:45:00,
2013-02-03 04:00:00,19.0,17.1,30.34,NNW,337,0.0,18.0,92,0.00,,,-99.99,Weather View 32 v60,2013-02-03 10:00:00,
2013-02-03 04:06:00,19.0,17.1,30.34,NNW,337,0.0,18.0,92,0.00,,,-99.99,Weather View 32 v60,2013-02-03 10:06:00,
2013-02-03 04:15:00,18.0,16.6,30.34,NNW,337,0.0,17.0,94,0.00,,,-99.99,Weather View 32 v60,2013-02-03 10:15:00,
2013-02-03 04:30:00,18.0,17.1,30.35,ENE,67,0.0,13.0,96,0.00,,,-99.99,Weather View 32 v60,2013-02-03 10:30:00,
2013-02-03 04:45:00,18.0,17.1,30.36,NW,315,0.0,13.0,96,0.00,,,-99.99,Weather View 32 v60,2013-02-03 10:45:00,
2013-02-03 05:00:00,18.0,15.3,30.36,NW,315,0.0,16.0,89,0.00,,,-99.99,Weather View 32 v60,2013-02-03 11:00:00,
2013-02-03 05:07:00,18.0,15.3,30.36,NW,315,0.0,16.0,89,0.00,,,-99.99,Weather View 32 v60,2013-02-03 11:07:00,
2013-02-03 05:15:00,18.0,15.3,30.36,NW,315,0.0,16.0,89,0.00,,,-99.99,Weather View 32 v60,2013-02-03 11:15:00,
2013-02-03 05:30:00,17.0,15.1,30.36,NE,45,0.0,16.0,92,0.00,,,-99.99,Weather View 32 v60,2013-02-03 11:30:00,
2013-02-03 05:45:00,16.0,14.6,30.36,NE,45,0.0,16.0,94,0.00,,,-99.99,Weather View 32 v60,2013-02-03 11:45:00,
2013-02-03 06:00:00,16.0,15.1,30.36,ENE,67,0.0,16.0,96,0.00,,,-99.99,Weather View 32 v60,2013-02-03 12:00:00,
2013-02-03 06:07:00,16.0,15.1,30.36,ENE,67,0.0,16.0,96,0.00,,,-99.99,Weather View 32 v60,2013-02-03 12:07:00,
2013-02-03 06:15:00,15.0,14.3,30.36,ENE,67,0.0,4.0,97,0.00,,,-99.99,Weather View 32 v60,2013-02-03 12:15:00,
2013-02-03 06:30:00,16.0,15.1,30.35,NNW,337,0.0,0.0,96,0.00,,,-99.99,Weather View 32 v60,2013-02-03 12:30:00,
2013-02-03 06:45:00,16.0,14.6,30.35,NNW,337,0.0,0.0,94,0.00,,,-99.99,Weather View 32 v60,2013-02-03 12:45:00,
2013-02-03 07:00:00,15.0,13.8,30.34,NNW,337,0.0,0.0,95,0.00,,,-99.99,Weather View 32 v60,2013-02-03 13:00:00,
2013-02-03 07:08:00,15.0,13.8,30.34,NNW,337,0.0,0.0,95,0.00,,,-99.99,Weather View 32 v60,2013-02-03 13:08:00,
2013-02-03 07:15:00,15.0,13.8,30.33,NNW,337,0.0,0.0,95,0.00,,,-99.99,Weather View 32 v60,2013-02-03 13:15:00,
2013-02-03 07:30:00,14.0,13.5,30.34,SW,225,0.0,0.0,98,0.00,,,-99.99,Weather View 32 v60,2013-02-03 13:30:00,
2013-02-03 07:45:00,14.0,13.8,30.33,WSW,247,0.0,0.0,99,0.00,,,-99.99,Weather View 32 v60,2013-02-03 13:45:00,
2013-02-03 08:00:00,14.0,14.0,30.33,SW,225,0.0,0.0,100,0.00,,,-99.99,Weather View 32 v60,2013-02-03 14:00:00,
2013-02-03 08:08:00,14.0,14.0,30.33,SW,225,0.0,0.0,100,0.00,,,-99.99,Weather View 32 v60,2013-02-03 14:08:00,
2013-02-03 08:15:00,15.0,14.8,30.33,SW,225,0.0,0.0,99,0.00,,,-99.99,Weather View 32 v60,2013-02-03 14:15:00,
2013-02-03 08:30:00,16.0,15.8,30.34,SW,225,0.0,0.0,99,0.00,,,-99.99,Weather View 32 v60,2013-02-03 14:30:00,
2013-02-03 08:45:00,18.0,16.6,30.34,SSW,202,0.0,0.0,94,0.00,,,-99.99,Weather View 32 v60,2013-02-03 14:45:00,
2013-02-03 09:00:00,21.0,18.3,30.32,SSW,202,0.0,0.0,89,0.00,,,-99.99,Weather View 32 v60,2013-02-03 15:00:00,
2013-02-03 09:09:00,21.0,18.3,30.32,SSW,202,0.0,0.0,89,0.00,,,-99.99,Weather View 32 v60,2013-02-03 15:09:00,
2013-02-03 09:15:00,23.0,18.3,30.30,SW,225,0.0,0.0,82,0.00,,,-99.99,Weather View 32 v60,2013-02-03 15:15:00,
2013-02-03 09:30:00,24.0,18.4,30.29,West,270,0.0,6.0,79,0.00,,,-99.99,Weather View 32 v60,2013-02-03 15:30:00,
2013-02-03 09:45:00,25.0,19.1,30.28,SSW,202,3.0,10.0,78,0.00,,,-99.99,Weather View 32 v60,2013-02-03 15:45:00,
2013-02-03 10:00:00,26.0,20.1,30.27,WSW,247,6.0,12.0,78,0.00,,,-99.99,Weather View 32 v60,2013-02-03 16:00:00,
2013-02-03 10:09:00,26.0,20.1,30.27,WSW,247,6.0,12.0,78,0.00,,,-99.99,Weather View 32 v60,2013-02-03 16:09:00,
2013-02-03 10:15:00,27.0,20.1,30.26,SSW,202,4.0,12.0,75,0.00,,,-99.99,Weather View 32 v60,2013-02-03 16:15:00,
2013-02-03 10:30:00,29.0,21.4,30.25,SW,225,0.0,12.0,73,0.00,,,-99.99,Weather View 32 v60,2013-02-03 16:30:00,
2013-02-03 10:45:00,31.0,22.4,30.23,WSW,247,0.0,12.0,70,0.00,,,-99.99,Weather View 32 v60,2013-02-03 16:45:00,
2013-02-03 11:00:00,33.0,23.2,30.23,ESE,112,0.0,12.0,67,0.00,,,-99.99,Weather View 32 v60,2013-02-03 17:00:00,
2013-02-03 11:15:00,34.0,23.8,30.21,WSW,247,0.0,12.0,66,0.00,,,-99.99,Weather View 32 v60,2013-02-03 17:15:00,
2013-02-03 11:30:00,35.0,24.0,30.20,SSW,202,1.0,10.0,64,0.00,,,-99.99,Weather View 32 v60,2013-02-03 17:30:00,
2013-02-03 11:45:00,37.0,25.2,30.18,SSW,202,2.0,9.0,62,0.00,,,-99.99,Weather View 32 v60,2013-02-03 17:45:00,
2013-02-03 12:00:00,37.0,25.2,30.17,South,180,0.0,10.0,62,0.00,,,-99.99,Weather View 32 v60,2013-02-03 18:00:00,
2013-02-03 12:15:00,39.0,22.4,30.14,SW,225,0.0,13.0,51,0.00,,,-99.99,Weather View 32 v60,2013-02-03 18:15:00,
2013-02-03 12:30:00,40.0,22.4,30.13,WSW,247,11.0,16.0,49,0.00,,,-99.99,Weather View 32 v60,2013-02-03 18:30:00,
2013-02-03 12:45:00,41.0,23.8,30.12,South,180,6.0,16.0,50,0.00,,,-99.99,Weather View 32 v60,2013-02-03 18:45:00,
2013-02-03 13:00:00,42.0,23.7,30.10,SSW,202,0.0,16.0,48,0.00,,,-99.99,Weather View 32 v60,2013-02-03 19:00:00,
2013-02-03 13:15:00,43.0,24.6,30.08,SSW,202,0.0,19.0,48,0.00,,,-99.99,Weather View 32 v60,2013-02-03 19:15:00,
2013-02-03 13:30:00,44.0,25.0,30.07,SSW,202,8.0,20.0,47,0.00,,,-99.99,Weather View 32 v60,2013-02-03 19:30:00,
2013-02-03 13:45:00,45.0,26.5,30.05,West,270,7.0,20.0,48,0.00,,,-99.99,Weather View 32 v60,2013-02-03 19:45:00,
2013-02-03 14:00:00,46.0,26.9,30.03,WNW,292,1.0,23.0,47,0.00,,,-99.99,Weather View 32 v60,2013-02-03 20:00:00,
2013-02-03 14:15:00,48.0,28.7,30.02,WSW,247,4.0,23.0,47,0.00,,,-99.99,Weather View 32 v60,2013-02-03 20:15:00,
2013-02-03 14:30:00,49.0,29.6,30.01,South,180,5.0,23.0,47,0.00,,,-99.99,Weather View 32 v60,2013-02-03 20:30:00,
2013-02-03 14:45:00,49.0,29.1,29.99,West,270,2.0,23.0,46,0.00,,,-99.99,Weather View 32 v60,2013-02-03 20:45:00,
2013-02-03 15:00:00,50.0,30.0,29.99,SW,225,1.0,21.0,46,0.00,,,-99.99,Weather View 32 v60,2013-02-03 21:00:00,
2013-02-03 15:15:00,50.0,30.0,29.99,WSW,247,6.0,21.0,46,0.00,,,-99.99,Weather View 32 v60,2013-02-03 21:15:00,
2013-02-03 15:30:00,51.0,30.4,29.98,SW,225,7.0,21.0,45,0.00,,,-99.99,Weather View 32 v60,2013-02-03 21:30:00,
2013-02-03 15:45:00,51.0,30.4,29.97,SSE,157,4.0,21.0,45,0.00,,,-99.99,Weather View 32 v60,2013-02-03 21:45:00,
2013-02-03 16:00:00,51.0,30.4,29.96,WSW,247,9.0,21.0,45,0.00,,,-99.99,Weather View 32 v60,2013-02-03 22:00:00,
2013-02-03 16:15:00,51.0,29.8,29.95,WSW,247,0.0,17.0,44,0.00,,,-99.99,Weather View 32 v60,2013-02-03 22:15:00,
2013-02-03 16:30:00,51.0,30.4,29.95,SSE,157,2.0,17.0,45,0.00,,,-99.99,Weather View 32 v60,2013-02-03 22:30:00,
2013-02-03 16:45:00,49.0,30.1,29.95,SSW,202,0.0,17.0,48,0.00,,,-99.99,Weather View 32 v60,2013-02-03 22:45:00,
2013-02-03 17:00:00,48.0,31.2,29.95,SSW,202,1.0,17.0,52,0.00,,,-99.99,Weather View 32 v60,2013-02-03 23:00:00,
2013-02-03 17:15:00,47.0,31.6,29.95,SSW,202,2.0,17.0,55,0.00,,,-99.99,Weather View 32 v60,2013-02-03 23:15:00,
2013-02-03 17:30:00,45.0,30.7,29.95,SW,225,1.0,16.0,57,0.00,,,-99.99,Weather View 32 v60,2013-02-03 23:30:00,
2013-02-03 17:45:00,44.0,31.0,29.95,SSW,202,1.0,15.0,60,0.00,,,-99.99,Weather View 32 v60,2013-02-03 23:45:00,
2013-02-03 18:00:00,43.0,30.9,29.95,SSW,202,0.0,15.0,62,0.00,,,-99.99,Weather View 32 v60,2013-02-04 00:00:00,
2013-02-03 18:15:00,43.0,32.0,29.95,SSW,202,1.0,15.0,65,0.00,,,-99.99,Weather View 32 v60,2013-02-04 00:15:00,
2013-02-03 18:30:00,42.0,31.5,29.95,WSW,247,2.0,15.0,66,0.00,,,-99.99,Weather View 32 v60,2013-02-04 00:30:00,
2013-02-03 18:45:00,41.0,31.2,29.95,WSW,247,0.0,13.0,68,0.00,,,-99.99,Weather View 32 v60,2013-02-04 00:45:00,
2013-02-03 19:00:00,41.0,32.0,29.96,SW,225,3.0,13.0,70,0.00,,,-99.99,Weather View 32 v60,2013-02-04 01:00:00,
2013-02-03 19:15:00,41.0,32.3,29.95,WSW,247,0.0,16.0,71,0.00,,,-99.99,Weather View 32 v60,2013-02-04 01:15:00,
2013-02-03 19:30:00,40.0,31.7,29.95,SW,225,0.0,16.0,72,0.00,,,-99.99,Weather View 32 v60,2013-02-04 01:30:00,
2013-02-03 19:45:00,40.0,31.3,29.95,West,270,0.0,16.0,71,0.00,,,-99.99,Weather View 32 v60,2013-02-04 01:45:00,
2013-02-03 20:00:00,40.0,31.7,29.95,WSW,247,2.0,16.0,72,0.00,,,-99.99,Weather View 32 v60,2013-02-04 02:00:00,
2013-02-03 20:15:00,40.0,31.7,29.95,WSW,247,0.0,16.0,72,0.00,,,-99.99,Weather View 32 v60,2013-02-04 02:15:00,
2013-02-03 20:30:00,39.0,31.1,29.95,WSW,247,1.0,12.0,73,0.00,,,-99.99,Weather View 32 v60,2013-02-04 02:30:00,
2013-02-03 20:45:00,39.0,31.4,29.96,WSW,247,0.0,11.0,74,0.00,,,-99.99,Weather View 32 v60,2013-02-04 02:45:00,
2013-02-03 21:00:00,38.0,31.1,29.95,WSW,247,0.0,11.0,76,0.00,,,-99.99,Weather View 32 v60,2013-02-04 03:00:00,
2013-02-03 21:15:00,38.0,30.8,29.96,West,270,0.0,6.0,75,0.00,,,-99.99,Weather View 32 v60,2013-02-04 03:15:00,
2013-02-03 21:30:00,38.0,30.8,29.95,West,270,0.0,6.0,75,0.00,,,-99.99,Weather View 32 v60,2013-02-04 03:30:00,
2013-02-03 21:45:00,39.0,31.4,29.95,WSW,247,0.0,6.0,74,0.00,,,-99.99,Weather View 32 v60,2013-02-04 03:45:00,
2013-02-03 22:00:00,39.0,31.1,29.95,WSW,247,0.0,5.0,73,0.00,,,-99.99,Weather View 32 v60,2013-02-04 04:00:00,
2013-02-03 22:15:00,39.0,30.4,29.95,WSW,247,0.0,5.0,71,0.00,,,-99.99,Weather View 32 v60,2013-02-04 04:15:00,
2013-02-03 22:30:00,39.0,30.4,29.94,WSW,247,0.0,2.0,71,0.00,,,-99.99,Weather View 32 v60,2013-02-04 04:30:00,
2013-02-03 22:45:00,39.0,30.4,29.94,SSW,202,0.0,2.0,71,0.00,,,-99.99,Weather View 32 v60,2013-02-04 04:45:00,
2013-02-03 23:01:00,38.0,29.8,29.95,SSW,202,0.0,2.0,72,0.00,,,-99.99,Weather View 32 v60,2013-02-04 05:01:00,
2013-02-03 23:15:00,37.0,30.1,29.95,SSW,202,0.0,2.0,76,0.00,,,-99.99,Weather View 32 v60,2013-02-04 05:15:00,
2013-02-03 23:17:00,37.0,30.1,29.95,SSW,202,0.0,2.0,76,0.00,,,-99.99,Weather View 32 v60,2013-02-04 05:17:00,
2013-02-03 23:30:00,36.0,30.1,29.96,NNW,337,0.0,1.0,79,0.00,,,-99.99,Weather View 32 v60,2013-02-04 05:30:00,
2013-02-03 23:45:00,37.0,30.1,29.96,WNW,292,0.0,0.0,76,0.00,,,-99.99,Weather View 32 v60,2013-02-04 05:45:00,